| time (UTC) | temp F | wind direction | speed MPH | gust MPH | rain 1hr in | rain 24hr in | rain mn in | humidity % | barometer mb |
| 20260505124857 | 65 | 259 | 0.0 | 0.0 | 0.00 | 0.00 | 0.00 | 67 | 1010.0 |
| 20260505124355 | 64 | 162 | 0.0 | 0.0 | 0.00 | 0.00 | 0.00 | 68 | 1010.0 |
| 20260505123855 | 63 | 157 | 0.0 | 0.0 | 0.00 | 0.00 | 0.00 | 69 | 1010.0 |
| 20260505123355 | 61 | 202 | 0.0 | 0.0 | 0.00 | 0.00 | 0.00 | 73 | 1009.9 |
| 20260505122856 | 60 | 168 | 0.0 | 0.0 | 0.00 | 0.00 | 0.00 | 73 | 1010.0 |
| 20260505122356 | 59 | 94 | 0.0 | 0.0 | 0.00 | 0.00 | 0.00 | 74 | 1010.1 |
| 20260505121857 | 58 | 100 | 0.0 | 0.0 | 0.00 | 0.00 | 0.00 | 74 | 1010.2 |
| 20260505121356 | 57 | 210 | 0.0 | 0.0 | 0.00 | 0.00 | 0.00 | 75 | 1010.2 |
| 20260505120855 | 56 | 97 | 0.0 | 0.0 | 0.00 | 0.00 | 0.00 | 76 | 1010.3 |
| 20260505120355 | 55 | 96 | 0.0 | 0.0 | 0.00 | 0.00 | 0.00 | 79 | 1010.2 |
| 20260505115855 | 54 | 93 | 0.0 | 0.0 | 0.00 | 0.00 | 0.00 | 80 | 1010.2 |
| 20260505115359 | 52 | 193 | 0.0 | 0.0 | 0.00 | 0.00 | 0.00 | 83 | 1010.3 |
| 20260505115355 | 53 | 162 | 0.0 | 0.0 | 0.00 | 0.00 | 0.00 | 82 | 1010.2 |
| 20260505115008 | 51 | 243 | 0.0 | 0.0 | 0.00 | 0.00 | 0.00 | 86 | 1010.3 |
| 20260505114506 | 50 | 213 | 0.0 | 0.0 | 0.00 | 0.00 | 0.00 | 86 | 1010.4 |
| 20260505113404 | 49 | 224 | 0.0 | 0.0 | 0.00 | 0.00 | 0.00 | 88 | 1010.3 |
| 20260505113353 | 49 | 233 | 0.0 | 0.0 | 0.00 | 0.00 | 0.00 | 87 | 1010.3 |
| 20260505112354 | 48 | 214 | 0.0 | 0.0 | 0.00 | 0.00 | 0.00 | 88 | 1010.3 |
| 20260505111854 | 47 | 274 | 0.0 | 0.0 | 0.00 | 0.00 | 0.00 | 88 | 1010.3 |
| 20260505111354 | 47 | 274 | 0.0 | 0.0 | 0.00 | 0.00 | 0.00 | 88 | 1010.2 |
| 20260505110853 | 47 | 274 | 0.0 | 0.0 | 0.00 | 0.00 | 0.00 | 88 | 1010.2 |
| 20260505110353 | 47 | 265 | 0.0 | 0.0 | 0.00 | 0.00 | 0.00 | 88 | 1010.3 |
| 20260505101852 | 45 | 251 | 0.0 | 0.0 | 0.00 | 0.00 | 0.00 | 92 | 1009.9 |
| 20260505101351 | 44 | 251 | 0.0 | 0.0 | 0.00 | 0.00 | 0.00 | 92 | 1009.7 |
| 20260505100852 | 44 | 251 | 0.0 | 0.0 | 0.00 | 0.00 | 0.00 | 92 | 1009.7 |
| 20260505100356 | 44 | 271 | 0.0 | 0.0 | 0.00 | 0.00 | 0.00 | 92 | 1009.8 |
| 20260505100352 | 44 | 271 | 0.0 | 0.0 | 0.00 | 0.00 | 0.00 | 92 | 1009.6 |
| 20260505100006 | 44 | 259 | 0.0 | 0.0 | 0.00 | 0.00 | 0.00 | 92 | 1009.7 |
| 20260505095351 | 44 | 264 | 0.0 | 0.0 | 0.00 | 0.00 | 0.00 | 92 | 1009.8 |
| 20260505094350 | 44 | 278 | 0.0 | 0.0 | 0.00 | 0.00 | 0.00 | 92 | 1009.8 |
| 20260505093851 | 44 | 100 | 0.0 | 0.0 | 0.00 | 0.00 | 0.00 | 92 | 1009.8 |
| 20260505093351 | 43 | 100 | 0.0 | 0.0 | 0.00 | 0.00 | 0.00 | 91 | 1009.7 |
| 20260505092849 | 43 | 252 | 0.0 | 0.0 | 0.00 | 0.00 | 0.00 | 92 | 1009.7 |
| 20260505092352 | 43 | 248 | 0.0 | 0.0 | 0.00 | 0.00 | 0.00 | 92 | 1009.8 |
| 20260505091849 | 43 | 248 | 0.0 | 0.0 | 0.00 | 0.00 | 0.00 | 92 | 1009.7 |
| 20260505091351 | 43 | 257 | 0.0 | 0.0 | 0.00 | 0.00 | 0.00 | 91 | 1009.6 |
| 20260505090849 | 43 | 250 | 0.0 | 0.0 | 0.00 | 0.00 | 0.00 | 91 | 1009.7 |
| 20260505090349 | 43 | 250 | 0.0 | 0.0 | 0.00 | 0.00 | 0.00 | 91 | 1009.7 |
| 20260505085855 | 44 | 269 | 0.0 | 0.0 | 0.00 | 0.00 | 0.00 | 91 | 1009.4 |
| 20260505085850 | 43 | 269 | 0.0 | 0.0 | 0.00 | 0.00 | 0.00 | 91 | 1009.6 |
| 20260505084849 | 44 | 269 | 0.0 | 0.0 | 0.00 | 0.00 | 0.00 | 91 | 1009.5 |
| 20260505084348 | 44 | 265 | 0.0 | 0.0 | 0.00 | 0.00 | 0.00 | 91 | 1009.5 |
| 20260505083849 | 44 | 265 | 0.0 | 0.0 | 0.00 | 0.00 | 0.00 | 90 | 1009.5 |
| 20260505083348 | 44 | 265 | 0.0 | 0.0 | 0.00 | 0.00 | 0.00 | 90 | 1009.5 |
| 20260505082853 | 44 | 265 | 0.0 | 0.0 | 0.00 | 0.00 | 0.00 | 90 | 1009.5 |
| 20260505082849 | 44 | 265 | 0.0 | 0.0 | 0.00 | 0.00 | 0.00 | 90 | 1009.6 |
| 20260505082506 | 44 | 254 | 0.0 | 0.0 | 0.00 | 0.00 | 0.00 | 90 | 1009.6 |
| 20260505081848 | 44 | 265 | 0.0 | 0.0 | 0.00 | 0.00 | 0.00 | 90 | 1009.6 |
| 20260505081505 | 44 | 252 | 0.0 | 0.0 | 0.00 | 0.00 | 0.00 | 89 | 1009.6 |
| 20260505080347 | 44 | 252 | 0.0 | 0.0 | 0.00 | 0.00 | 0.00 | 89 | 1009.6 |
| 20260505075846 | 45 | 265 | 0.0 | 0.0 | 0.00 | 0.00 | 0.00 | 90 | 1009.6 |
| 20260505075347 | 45 | 261 | 0.0 | 0.0 | 0.00 | 0.00 | 0.00 | 89 | 1009.7 |
| 20260505074846 | 45 | 261 | 0.0 | 0.0 | 0.00 | 0.00 | 0.00 | 89 | 1009.7 |
| 20260505074347 | 45 | 261 | 0.0 | 0.0 | 0.00 | 0.00 | 0.00 | 89 | 1009.7 |
| 20260505073845 | 45 | 261 | 0.0 | 0.0 | 0.00 | 0.00 | 0.00 | 90 | 1009.8 |
| 20260505073345 | 45 | 261 | 0.0 | 0.0 | 0.00 | 0.00 | 0.00 | 89 | 1009.8 |
| 20260505072845 | 45 | 261 | 0.0 | 0.0 | 0.00 | 0.00 | 0.00 | 89 | 1009.7 |
| 20260505072345 | 45 | 266 | 0.0 | 0.0 | 0.00 | 0.00 | 0.00 | 89 | 1009.6 |
| 20260505071842 | 45 | 261 | 0.0 | 0.0 | 0.00 | 0.00 | 0.00 | 89 | 1009.8 |
| 20260505071345 | 45 | 265 | 0.0 | 0.0 | 0.00 | 0.00 | 0.00 | 89 | 1009.8 |
| 20260505070846 | 45 | 265 | 0.0 | 0.0 | 0.00 | 0.00 | 0.00 | 89 | 1009.7 |
| 20260505070345 | 45 | 265 | 0.0 | 0.0 | 0.00 | 0.00 | 0.00 | 89 | 1009.8 |
| 20260505065845 | 45 | 265 | 0.0 | 0.0 | 0.00 | 0.00 | 0.00 | 88 | 1009.6 |
| 20260505065345 | 45 | 268 | 0.0 | 0.0 | 0.00 | 0.00 | 0.00 | 88 | 1009.7 |
| 20260505064844 | 45 | 258 | 0.0 | 0.0 | 0.00 | 0.00 | 0.00 | 89 | 1009.8 |
| 20260505064344 | 45 | 251 | 0.0 | 0.0 | 0.00 | 0.00 | 0.00 | 89 | 1009.9 |
| 20260505063844 | 45 | 251 | 0.0 | 0.0 | 0.00 | 0.00 | 0.00 | 89 | 1009.9 |
| 20260505063344 | 45 | 250 | 0.0 | 0.0 | 0.00 | 0.00 | 0.00 | 89 | 1009.9 |
| 20260505062849 | 45 | 250 | 0.0 | 0.0 | 0.00 | 0.00 | 0.00 | 89 | 1009.9 |
| 20260505062845 | 45 | 250 | 0.0 | 0.0 | 0.00 | 0.00 | 0.00 | 89 | 1009.8 |
| 20260505061843 | 45 | 250 | 0.0 | 0.0 | 0.00 | 0.00 | 0.00 | 89 | 1009.9 |
| 20260505061342 | 45 | 250 | 0.0 | 0.0 | 0.00 | 0.00 | 0.00 | 89 | 1009.9 |
| 20260505060848 | 45 | 250 | 0.0 | 0.0 | 0.00 | 0.00 | 0.00 | 88 | 1009.8 |
| 20260505060843 | 45 | 250 | 0.0 | 0.0 | 0.00 | 0.00 | 0.00 | 89 | 1009.9 |
| 20260505055844 | 45 | 250 | 0.0 | 0.0 | 0.00 | 0.00 | 0.00 | 88 | 1009.9 |
| 20260505055343 | 45 | 266 | 0.0 | 0.0 | 0.00 | 0.00 | 0.00 | 88 | 1009.9 |
| 20260505054844 | 45 | 259 | 0.0 | 0.0 | 0.00 | 0.00 | 0.00 | 88 | 1009.9 |
| 20260505054348 | 46 | 259 | 0.0 | 0.0 | 0.00 | 0.00 | 0.00 | 87 | 1009.9 |
| 20260505054344 | 46 | 259 | 0.0 | 0.0 | 0.00 | 0.00 | 0.00 | 87 | 1009.9 |
| 20260505053346 | 46 | 259 | 0.0 | 0.0 | 0.00 | 0.00 | 0.00 | 86 | 1010.0 |
| 20260505053342 | 46 | 259 | 0.0 | 0.0 | 0.00 | 0.00 | 0.00 | 87 | 1009.9 |
| 20260505052339 | 46 | 252 | 0.0 | 0.0 | 0.00 | 0.00 | 0.00 | 86 | 1010.0 |
| 20260505051841 | 46 | 252 | 0.0 | 0.0 | 0.00 | 0.00 | 0.00 | 87 | 1010.0 |
| 20260505051340 | 46 | 266 | 0.0 | 0.0 | 0.00 | 0.00 | 0.00 | 86 | 1010.1 |
| 20260505050841 | 46 | 266 | 0.0 | 0.0 | 0.00 | 0.00 | 0.00 | 86 | 1010.0 |
| 20260505050339 | 46 | 266 | 0.0 | 0.0 | 0.00 | 0.00 | 0.00 | 85 | 1010.1 |
| 20260505041339 | 47 | 266 | 0.0 | 0.0 | 0.00 | 0.00 | 0.00 | 83 | 1010.0 |
| 20260505040838 | 48 | 266 | 0.0 | 0.0 | 0.00 | 0.00 | 0.00 | 83 | 1010.0 |
| 20260505040338 | 48 | 264 | 0.0 | 0.0 | 0.00 | 0.00 | 0.00 | 83 | 1009.9 |
| 20260505035844 | 48 | 264 | 0.0 | 0.0 | 0.00 | 0.00 | 0.00 | 82 | 1010.1 |
| 20260505035839 | 48 | 250 | 0.0 | 0.0 | 0.00 | 0.00 | 0.00 | 82 | 1010.0 |
| 20260505035451 | 48 | 268 | 0.0 | 0.0 | 0.00 | 0.00 | 0.00 | 82 | 1010.0 |
| 20260505034338 | 48 | 268 | 0.0 | 0.0 | 0.00 | 0.00 | 0.00 | 81 | 1009.9 |
| 20260505033837 | 48 | 268 | 0.0 | 0.0 | 0.00 | 0.00 | 0.00 | 81 | 1009.9 |
| 20260505033337 | 48 | 268 | 0.0 | 0.0 | 0.00 | 0.00 | 0.00 | 81 | 1009.9 |
| 20260505032837 | 49 | 258 | 0.0 | 0.0 | 0.00 | 0.00 | 0.00 | 80 | 1010.0 |
| 20260505032337 | 49 | 258 | 0.0 | 0.0 | 0.00 | 0.00 | 0.00 | 80 | 1010.0 |
| 20260505031837 | 49 | 258 | 0.0 | 0.0 | 0.00 | 0.00 | 0.00 | 80 | 1010.1 |
| 20260505031334 | 49 | 258 | 0.0 | 0.0 | 0.00 | 0.00 | 0.00 | 79 | 1010.2 |
| 20260505030835 | 49 | 258 | 0.0 | 0.0 | 0.00 | 0.00 | 0.00 | 79 | 1010.2 |
| 20260505030341 | 49 | 258 | 0.0 | 0.0 | 0.00 | 0.00 | 0.00 | 78 | 1010.2 |
| 20260505030336 | 49 | 258 | 0.0 | 0.0 | 0.00 | 0.00 | 0.00 | 78 | 1010.2 |
| 20260505025336 | 49 | 258 | 0.0 | 0.0 | 0.00 | 0.00 | 0.00 | 77 | 1010.1 |
| 20260505024836 | 50 | 258 | 0.0 | 0.0 | 0.00 | 0.00 | 0.00 | 77 | 1010.0 |
| 20260505024335 | 50 | 258 | 0.0 | 0.0 | 0.00 | 0.00 | 0.00 | 76 | 1009.9 |
| 20260505023835 | 50 | 258 | 0.0 | 0.0 | 0.00 | 0.00 | 0.00 | 76 | 1010.0 |
| 20260505023334 | 50 | 224 | 0.0 | 0.0 | 0.00 | 0.00 | 0.00 | 75 | 1010.0 |
| 20260505022834 | 51 | 224 | 0.0 | 0.0 | 0.00 | 0.00 | 0.00 | 74 | 1010.1 |
| 20260505022335 | 51 | 223 | 0.0 | 0.0 | 0.00 | 0.00 | 0.00 | 74 | 1010.1 |
| 20260505021834 | 51 | 206 | 0.0 | 0.0 | 0.00 | 0.00 | 0.00 | 74 | 1010.2 |
| 20260505021334 | 51 | 264 | 0.0 | 0.0 | 0.00 | 0.00 | 0.00 | 73 | 1010.1 |
| 20260505020835 | 51 | 264 | 0.0 | 0.0 | 0.00 | 0.00 | 0.00 | 73 | 1010.1 |
| 20260505020334 | 52 | 264 | 0.0 | 0.0 | 0.00 | 0.00 | 0.00 | 72 | 1010.1 |
| 20260505015838 | 52 | 264 | 0.0 | 0.0 | 0.00 | 0.00 | 0.00 | 72 | 1009.9 |
| 20260505015833 | 52 | 264 | 0.0 | 0.0 | 0.00 | 0.00 | 0.00 | 72 | 1010.0 |
| 20260505014833 | 53 | 264 | 0.0 | 0.0 | 0.00 | 0.00 | 0.00 | 72 | 1009.9 |
| 20260505014335 | 53 | 272 | 0.0 | 0.0 | 0.00 | 0.00 | 0.00 | 72 | 1009.9 |
| 20260505013838 | 53 | 258 | 0.0 | 0.0 | 0.00 | 0.00 | 0.00 | 70 | 1009.8 |
| 20260505013834 | 53 | 272 | 0.0 | 0.0 | 0.00 | 0.00 | 0.00 | 71 | 1009.9 |
| 20260505012833 | 54 | 258 | 0.0 | 0.0 | 0.00 | 0.00 | 0.00 | 70 | 1009.7 |
| 20260505012331 | 54 | 258 | 0.0 | 0.0 | 0.00 | 0.00 | 0.00 | 69 | 1009.7 |
| 20260505011831 | 55 | 258 | 0.0 | 0.0 | 0.00 | 0.00 | 0.00 | 67 | 1009.7 |
| 20260505011332 | 55 | 258 | 0.0 | 0.0 | 0.00 | 0.00 | 0.00 | 67 | 1009.6 |
| 20260505010833 | 56 | 258 | 0.0 | 0.0 | 0.00 | 0.00 | 0.00 | 65 | 1009.6 |
| 20260505010335 | 56 | 276 | 0.0 | 0.0 | 0.00 | 0.00 | 0.00 | 63 | 1009.3 |
| 20260505010331 | 56 | 250 | 0.0 | 0.0 | 0.00 | 0.00 | 0.00 | 64 | 1009.5 |
| 20260505005330 | 57 | 276 | 0.0 | 0.0 | 0.00 | 0.00 | 0.00 | 62 | 1009.2 |
| 20260505004837 | 58 | 214 | 0.0 | 0.0 | 0.00 | 0.00 | 0.00 | 60 | 1009.1 |
| 20260505004834 | 57 | 214 | 0.0 | 0.0 | 0.00 | 0.00 | 0.00 | 61 | 1009.2 |
| 20260505003830 | 58 | 214 | 0.0 | 0.0 | 0.00 | 0.00 | 0.00 | 59 | 1009.0 |
| 20260505003331 | 59 | 214 | 0.0 | 0.0 | 0.00 | 0.00 | 0.00 | 57 | 1009.0 |
| 20260505002832 | 60 | 214 | 0.0 | 0.0 | 0.00 | 0.00 | 0.00 | 54 | 1009.0 |
| 20260505002330 | 60 | 329 | 0.0 | 0.0 | 0.00 | 0.00 | 0.00 | 53 | 1008.9 |
| 20260505001830 | 60 | 323 | 0.0 | 0.0 | 0.00 | 0.00 | 0.00 | 54 | 1008.7 |
| 20260505001329 | 60 | 323 | 0.0 | 0.0 | 0.00 | 0.00 | 0.00 | 55 | 1008.6 |
| 20260505000830 | 61 | 321 | 0.0 | 0.0 | 0.00 | 0.00 | 0.00 | 53 | 1008.5 |
| 20260505000331 | 62 | 266 | 0.0 | 0.0 | 0.00 | 0.00 | 0.00 | 46 | 1008.4 |
| 20260504235828 | 63 | 266 | 0.0 | 0.0 | 0.00 | 0.00 | 0.00 | 46 | 1008.3 |
| 20260504235330 | 64 | 305 | 0.0 | 0.0 | 0.00 | 0.00 | 0.00 | 45 | 1008.3 |
| 20260504234828 | 65 | 305 | 0.0 | 0.0 | 0.00 | 0.00 | 0.00 | 44 | 1008.3 |
| 20260504234336 | 66 | 268 | 0.0 | 0.0 | 0.00 | 0.00 | 0.00 | 42 | 1008.1 |
| 20260504234330 | 65 | 324 | 0.0 | 0.0 | 0.00 | 0.00 | 0.00 | 42 | 1008.2 |
| 20260504233331 | 66 | 344 | 0.0 | 0.0 | 0.00 | 0.00 | 0.00 | 40 | 1007.9 |
| 20260504232830 | 67 | 336 | 0.0 | 0.0 | 0.00 | 0.00 | 0.00 | 40 | 1007.9 |
| 20260504232328 | 67 | 264 | 0.0 | 0.0 | 0.00 | 0.00 | 0.00 | 39 | 1007.8 |
| 20260504231830 | 68 | 238 | 0.0 | 1.0 | 0.00 | 0.00 | 0.00 | 37 | 1007.8 |
| 20260504231328 | 68 | 269 | 0.0 | 1.0 | 0.00 | 0.00 | 0.00 | 40 | 1007.8 |
| 20260504230829 | 68 | 295 | 0.0 | 2.0 | 0.00 | 0.00 | 0.00 | 38 | 1007.8 |
| 20260504230327 | 69 | 331 | 0.0 | 2.0 | 0.00 | 0.00 | 0.00 | 38 | 1007.7 |
| 20260504225828 | 69 | 266 | 0.0 | 0.0 | 0.00 | 0.00 | 0.00 | 35 | 1007.7 |
| 20260504225329 | 69 | 243 | 0.0 | 0.0 | 0.00 | 0.00 | 0.00 | 35 | 1007.6 |
| 20260504224830 | 70 | 87 | 0.0 | 0.0 | 0.00 | 0.00 | 0.00 | 35 | 1007.5 |
| 20260504224826 | 70 | 302 | 0.0 | 0.0 | 0.00 | 0.00 | 0.00 | 35 | 1007.6 |
| 20260504223826 | 71 | 296 | 0.0 | 0.0 | 0.00 | 0.00 | 0.00 | 35 | 1007.5 |
| 20260504223329 | 71 | 303 | 0.0 | 0.0 | 0.00 | 0.00 | 0.00 | 36 | 1007.5 |
| 20260504222826 | 70 | 282 | 0.0 | 1.0 | 0.00 | 0.00 | 0.00 | 33 | 1007.5 |
| 20260504222326 | 70 | 254 | 0.0 | 1.0 | 0.00 | 0.00 | 0.00 | 37 | 1007.5 |
| 20260504221827 | 70 | 312 | 0.0 | 5.0 | 0.00 | 0.00 | 0.00 | 35 | 1007.5 |
| 20260504221327 | 70 | 306 | 0.0 | 5.0 | 0.00 | 0.00 | 0.00 | 34 | 1007.5 |
| 20260504220826 | 70 | 292 | 0.0 | 1.0 | 0.00 | 0.00 | 0.00 | 35 | 1007.6 |
| 20260504220326 | 71 | 268 | 0.0 | 1.0 | 0.00 | 0.00 | 0.00 | 35 | 1007.5 |
| 20260504215826 | 71 | 310 | 0.0 | 0.0 | 0.00 | 0.00 | 0.00 | 35 | 1007.4 |
| 20260504215326 | 70 | 124 | 0.0 | 1.0 | 0.00 | 0.00 | 0.00 | 37 | 1007.4 |
| 20260504214830 | 70 | 320 | 0.0 | 1.0 | 0.00 | 0.00 | 0.00 | 35 | 1007.6 |
| 20260504214826 | 70 | 261 | 0.0 | 1.0 | 0.00 | 0.00 | 0.00 | 36 | 1007.6 |
| 20260504213824 | 70 | 276 | 0.0 | 2.0 | 0.00 | 0.00 | 0.00 | 36 | 1007.7 |
| 20260504213325 | 70 | 223 | 0.0 | 10.0 | 0.00 | 0.00 | 0.00 | 36 | 1007.7 |
| 20260504212825 | 70 | 300 | 3.0 | 10.0 | 0.00 | 0.00 | 0.00 | 34 | 1007.6 |
| 20260504212324 | 70 | 252 | 0.0 | 10.0 | 0.00 | 0.00 | 0.00 | 36 | 1007.7 |
| 20260504211829 | 71 | 223 | 0.0 | 5.0 | 0.00 | 0.00 | 0.00 | 35 | 1007.7 |
| 20260504211824 | 70 | 299 | 0.0 | 10.0 | 0.00 | 0.00 | 0.00 | 35 | 1007.8 |
| 20260504210823 | 71 | 264 | 1.0 | 5.0 | 0.00 | 0.00 | 0.00 | 34 | 1007.8 |
| 20260504210324 | 71 | 275 | 0.0 | 0.0 | 0.00 | 0.00 | 0.00 | 35 | 1007.9 |
| 20260504205825 | 71 | 290 | 0.0 | 5.0 | 0.00 | 0.00 | 0.00 | 35 | 1007.8 |
| 20260504205324 | 70 | 0 | 0.0 | 5.0 | 0.00 | 0.00 | 0.00 | 34 | 1007.9 |
| 20260504204825 | 71 | 11 | 0.0 | 9.0 | 0.00 | 0.00 | 0.00 | 35 | 1007.9 |
| 20260504204323 | 70 | 323 | 0.0 | 9.0 | 0.00 | 0.00 | 0.00 | 35 | 1007.9 |
| 20260504203823 | 70 | 278 | 1.0 | 10.0 | 0.00 | 0.00 | 0.00 | 35 | 1007.7 |
| 20260504203323 | 69 | 235 | 0.0 | 12.0 | 0.00 | 0.00 | 0.00 | 35 | 1007.8 |
| 20260504202822 | 69 | 265 | 1.0 | 12.0 | 0.00 | 0.00 | 0.00 | 36 | 1007.8 |
| 20260504202322 | 70 | 247 | 2.0 | 11.0 | 0.00 | 0.00 | 0.00 | 34 | 1007.9 |
| 20260504201823 | 70 | 257 | 1.0 | 11.0 | 0.00 | 0.00 | 0.00 | 35 | 1007.9 |
| 20260504201323 | 71 | 288 | 0.0 | 9.0 | 0.00 | 0.00 | 0.00 | 35 | 1008.1 |
| 20260504200821 | 71 | 336 | 0.0 | 10.0 | 0.00 | 0.00 | 0.00 | 38 | 1007.9 |
| 20260504200321 | 71 | 266 | 0.0 | 16.0 | 0.00 | 0.00 | 0.00 | 35 | 1008.3 |
| 20260504195820 | 70 | 281 | 4.0 | 16.0 | 0.00 | 0.00 | 0.00 | 35 | 1008.3 |
| 20260504195322 | 70 | 314 | 1.0 | 16.0 | 0.00 | 0.00 | 0.00 | 34 | 1008.3 |
| 20260504194822 | 70 | 274 | 1.0 | 4.0 | 0.00 | 0.00 | 0.00 | 36 | 1008.3 |
| 20260504194329 | 71 | 251 | 0.0 | 1.0 | 0.00 | 0.00 | 0.00 | 37 | 1008.5 |
| 20260504194323 | 71 | 258 | 0.0 | 1.0 | 0.00 | 0.00 | 0.00 | 35 | 1008.5 |
| 20260504193321 | 71 | 255 | 0.0 | 10.0 | 0.00 | 0.00 | 0.00 | 36 | 1008.6 |
| 20260504192821 | 70 | 324 | 0.0 | 15.0 | 0.00 | 0.00 | 0.00 | 36 | 1008.6 |
| 20260504192329 | 70 | 269 | 1.0 | 10.0 | 0.00 | 0.00 | 0.00 | 36 | 1008.7 |
| 20260504192320 | 70 | 221 | 0.0 | 15.0 | 0.00 | 0.00 | 0.00 | 34 | 1008.6 |
| 20260504191821 | 71 | 251 | 0.0 | 2.0 | 0.00 | 0.00 | 0.00 | 37 | 1008.6 |
| 20260504191321 | 70 | 254 | 0.0 | 12.0 | 0.00 | 0.00 | 0.00 | 37 | 1008.6 |
| 20260504190821 | 70 | 286 | 1.0 | 12.0 | 0.00 | 0.00 | 0.00 | 35 | 1008.8 |
| 20260504185819 | 70 | 262 | 1.0 | 10.0 | 0.00 | 0.00 | 0.00 | 35 | 1008.7 |
| 20260504185324 | 71 | 227 | 1.0 | 7.0 | 0.00 | 0.00 | 0.00 | 37 | 1008.8 |
| 20260504185319 | 70 | 248 | 1.0 | 9.0 | 0.00 | 0.00 | 0.00 | 33 | 1008.9 |
| 20260504184318 | 71 | 275 | 0.0 | 2.0 | 0.00 | 0.00 | 0.00 | 36 | 1008.8 |
| 20260504183819 | 70 | 24 | 0.0 | 3.0 | 0.00 | 0.00 | 0.00 | 39 | 1008.8 |
| 20260504183318 | 70 | 230 | 0.0 | 18.0 | 0.00 | 0.00 | 0.00 | 37 | 1008.9 |
| 20260504182818 | 69 | 305 | 4.0 | 18.0 | 0.00 | 0.00 | 0.00 | 35 | 1008.9 |
| 20260504182318 | 69 | 351 | 2.0 | 13.0 | 0.00 | 0.00 | 0.00 | 35 | 1008.9 |
| 20260504181819 | 69 | 279 | 0.0 | 7.0 | 0.00 | 0.00 | 0.00 | 36 | 1009.1 |
| 20260504181319 | 69 | 310 | 0.0 | 9.0 | 0.00 | 0.00 | 0.00 | 38 | 1009.1 |
| 20260504180818 | 69 | 283 | 1.0 | 9.0 | 0.00 | 0.00 | 0.00 | 37 | 1009.2 |
| 20260504180317 | 69 | 289 | 0.0 | 4.0 | 0.00 | 0.00 | 0.00 | 38 | 1009.2 |
| 20260504175818 | 68 | 292 | 0.0 | 9.0 | 0.00 | 0.00 | 0.00 | 38 | 1009.2 |
| 20260504175318 | 67 | 344 | 2.0 | 9.0 | 0.00 | 0.00 | 0.00 | 38 | 1009.3 |
| 20260504174817 | 67 | 272 | 0.0 | 10.0 | 0.00 | 0.00 | 0.00 | 39 | 1009.4 |
| 20260504174317 | 67 | 288 | 3.0 | 10.0 | 0.00 | 0.00 | 0.00 | 38 | 1009.5 |
| 20260504173816 | 67 | 265 | 1.0 | 9.0 | 0.00 | 0.00 | 0.00 | 39 | 1009.4 |
| 20260504173316 | 67 | 274 | 1.0 | 9.0 | 0.00 | 0.00 | 0.00 | 38 | 1009.5 |
| 20260504172817 | 67 | 269 | 0.0 | 9.0 | 0.00 | 0.00 | 0.00 | 40 | 1009.6 |
| 20260504172315 | 67 | 279 | 0.0 | 12.0 | 0.00 | 0.00 | 0.00 | 41 | 1009.5 |
| 20260504171816 | 67 | 331 | 2.0 | 14.0 | 0.00 | 0.00 | 0.00 | 38 | 1009.5 |
| 20260504171317 | 66 | 278 | 1.0 | 22.0 | 0.00 | 0.00 | 0.00 | 40 | 1009.6 |
| 20260504170815 | 66 | 271 | 4.0 | 22.0 | 0.00 | 0.00 | 0.00 | 41 | 1009.8 |
| 20260504170320 | 66 | 314 | 0.0 | 2.0 | 0.00 | 0.00 | 0.00 | 42 | 1009.8 |
| 20260504170315 | 66 | 313 | 1.0 | 10.0 | 0.00 | 0.00 | 0.00 | 40 | 1009.9 |
| 20260504160314 | 62 | 314 | 0.0 | 4.0 | 0.00 | 0.00 | 0.00 | 40 | 1010.5 |
| 20260504150812 | 62 | 271 | 0.0 | 11.0 | 0.00 | 0.00 | 0.00 | 42 | 1011.0 |
| 20260504150318 | 61 | 341 | 0.0 | 7.0 | 0.00 | 0.00 | 0.00 | 45 | 1011.0 |
| 20260504150313 | 62 | 272 | 0.0 | 4.0 | 0.00 | 0.00 | 0.00 | 43 | 1011.0 |
| 20260504141309 | 59 | 245 | 0.0 | 3.0 | 0.00 | 0.00 | 0.00 | 45 | 1011.3 |
| 20260504140810 | 59 | 243 | 0.0 | 3.0 | 0.00 | 0.00 | 0.00 | 45 | 1011.3 |
| 20260504140309 | 59 | 238 | 0.0 | 3.0 | 0.00 | 0.00 | 0.00 | 47 | 1011.5 |